#timestamp,LO_Frequency,Hit,StdDev 
1507255215.1,286047002.7,N
1507255216.0,286047002.7,N
1507255235.8,286047002.1,N
1507255255.7,286047002.0,N
1507255275.5,286047004.2,N
1507255295.3,286047003.9,N
1507255315.2,286047003.1,N
1507255335.0,286047005.3,Y
1507255335.9,286047005.3,P
1507255355.8,286047004.4,P
1507255375.6,286047003.7,P
1507255395.4,286047004.2,Y
1507255415.3,286047000.7,P
1507255435.1,286047001.1,N
1507255455.8,286046999.7,N
1507255475.7,286046999.8,N
1507255495.5,286047000.0,N
1507255515.4,286046998.2,N
1507255535.2,286047001.1,N
1507255555.0,286047001.1,N
1507255555.9,286047001.1,N
1507255575.8,286047000.0,N
1507255595.6,286047000.7,N
1507255615.5,286046998.1,N
1507255635.3,286046999.0,N
1507255655.1,286046999.6,N
1507255675.9,286046999.0,N
1507255695.7,286047000.9,N
1507255715.5,286047001.0,N
1507255735.4,286047000.1,N
1507255755.2,286047002.4,N
1507255775.1,286047003.8,N
1507255776.0,286047003.8,N
1507255795.8,286047004.1,N
1507255815.6,286047001.7,N
1507255835.5,286047002.7,N
1507255855.3,286047002.4,N
1507255875.1,286046999.7,N
1507255895.9,286046998.2,N
1507255915.7,286046998.3,N
1507255935.6,286046998.8,N
1507255955.4,286047000.0,N
1507255975.2,286046999.7,N
1507255995.1,286047002.7,N
1507255996.0,286047002.7,N
1507256015.8,286047003.4,N
1507256035.6,286047004.0,N
1507256055.5,286047002.1,N
1507256075.3,286047003.7,N
1507256095.2,286047003.0,N
1507256115.9,286047003.5,N
1507256135.7,286047005.3,N
1507256155.6,286047007.4,Y
1507256175.4,286047003.6,P
1507256195.2,286047005.6,P
1507256215.1,286047003.1,N
1507256216.0,286047003.1,N
1507256235.8,286047004.2,Y
1507256255.7,286046998.2,P
1507256275.5,286047002.4,N
1507256295.3,286047000.6,N
1507256315.2,286047000.1,N
1507256335.0,286047000.2,N
1507256335.9,286047000.2,N
1507256355.8,286046999.7,N
1507256375.6,286047000.0,N
1507256395.4,286047000.5,N
1507256415.3,286047000.6,N
1507256435.1,286047000.0,N
1507256455.8,286047000.9,N
1507256475.7,286047002.7,N
1507256495.5,286047002.7,N
1507256545.4,286047000.0,E
1507256555.3,286047000.3,N
1507256575.1,286047000.0,P
1507256595.9,286047000.2,N
1507256615.7,286047000.2,N
1507256635.6,286047000.7,Y
1507256655.4,286046998.1,P
1507256675.2,286047000.6,N
1507256695.1,286047002.8,N
1507256696.0,286047002.8,N
1507256715.8,286047002.2,N
1507256735.7,286047004.3,N
1507256755.5,286047003.0,N
1507256775.3,286047003.8,N
1507256795.2,286047003.4,N
1507256815.9,286047003.2,N
1507256835.7,286047003.4,N
1507256855.6,286047004.4,N
1507256875.4,286047004.4,N
1507256895.3,286047003.6,N
1507256915.1,286047006.0,Y
1507256916.0,286047006.0,P
1507256935.8,286046999.7,N
1507256955.7,286047002.0,N
1507256975.5,286047002.3,N
1507256995.3,286047002.6,N
1507257015.2,286047002.8,N
1507257035.0,286047002.5,N
1507257035.9,286047002.5,N
1507257055.8,286047002.3,N
1507257075.6,286047001.9,N
1507257095.4,286047002.1,N
1507257115.3,286047001.5,N
1507257135.1,286047003.3,N
